WD6AWP Weather Reports


time (UTC)temp
C
wind
direction
speed
KPH
gust
KPH
rain 1hr
cm
rain 24hr
cm
rain mn
cm
humidity
%
barometer
mb
20260506230021 21 281 11.3 24.1 0.00 0.00 0.00 75 1015.8
20260506224517 21 304 16.1 27.4 0.00 0.00 0.00 74 1016.0
20260506223013 20 298 12.9 25.7 0.00 0.00 0.00 74 1016.2
20260506221511 21 269 16.1 27.4 0.00 0.00 0.00 72 1016.3
20260506220020 21 255 9.7 22.5 0.00 0.00 0.00 69 1016.6
20260506214509 22 257 11.3 27.4 0.00 0.00 0.00 65 1016.7
20260506213006 22 241 8.0 17.7 0.00 0.00 0.00 66 1016.8
20260506211502 22 225 9.7 22.5 0.00 0.00 0.00 63 1016.9
20260506210007 22 236 8.0 17.7 0.00 0.00 0.00 64 1017.1
20260506204601 21 234 9.7 17.7 0.00 0.00 0.00 64 1017.2
20260506203057 21 245 8.0 17.7 0.00 0.00 0.00 68 1017.3
20260506201554 21 223 9.7 19.3 0.00 0.00 0.00 71 1017.5
20260506200053 20 206 9.7 20.9 0.00 0.00 0.00 73 1017.6
20260506194554 21 219 9.7 19.3 0.00 0.00 0.00 73 1017.8
20260506193052 20 196 9.7 17.7 0.00 0.00 0.00 73 1017.9
20260506191551 21 226 9.7 16.1 0.00 0.00 0.00 72 1018.0
20260506190050 20 219 4.8 16.1 0.00 0.00 0.00 73 1018.2
20260506184549 20 165 8.0 17.7 0.00 0.00 0.00 74 1018.3
20260506183048 20 248 8.0 16.1 0.00 0.00 0.00 72 1018.5
20260506181546 20 225 8.0 16.1 0.00 0.00 0.00 73 1018.5
20260506180047 20 227 6.4 16.1 0.00 0.00 0.00 73 1018.5
20260506174547 20 164 6.4 16.1 0.00 0.00 0.00 73 1018.4
20260506173053 20 201 6.4 17.7 0.00 0.00 0.00 72 1018.4
20260506171551 20 175 6.4 19.3 0.00 0.00 0.00 73 1018.3
20260506170043 20 206 6.4 14.5 0.00 0.00 0.00 71 1018.4
20260506164553 20 209 4.8 12.9 0.00 0.00 0.00 71 1018.3
20260506163043 20 217 3.2 12.9 0.00 0.00 0.00 71 1018.2
20260506161540 20 225 3.2 14.5 0.00 0.00 0.00 71 1018.2
20260506160046 20 146 0.0 0.0 0.00 0.00 0.00 70 1018.3
20260506154543 20 137 0.0 0.0 0.00 0.00 0.00 71 1018.4
20260506153035 19 83 0.0 0.0 0.00 0.00 0.00 72 1018.4
20260506151531 18 78 0.0 6.4 0.00 0.00 0.00 73 1018.4
20260506150026 18 83 0.0 0.0 0.00 0.00 0.00 75 1018.4
20260506144527 17 84 0.0 0.0 0.00 0.00 0.00 77 1018.4
20260506143022 15 82 0.0 0.0 0.00 0.00 0.00 82 1018.3
20260506141515 13 84 0.0 0.0 0.00 0.00 0.00 90 1018.2
20260506140015 12 93 0.0 0.0 0.00 0.00 0.00 91 1018.1
20260506134513 11 117 0.0 0.0 0.00 0.00 0.00 92 1018.1
20260506133014 11 136 0.0 0.0 0.00 0.00 0.00 91 1017.9
20260506131516 11 136 0.0 0.0 0.00 0.00 0.00 91 1017.8
20260506130014 11 136 0.0 0.0 0.00 0.00 0.00 91 1017.6
20260506124506 12 136 0.0 0.0 0.00 0.00 0.00 91 1017.5
20260506123006 12 136 0.0 0.0 0.00 0.00 0.00 91 1017.4
20260506121504 12 136 0.0 0.0 0.00 0.00 0.00 90 1017.2
20260506120003 12 136 0.0 0.0 0.00 0.00 0.00 90 1017.2
20260506114503 12 136 0.0 0.0 0.00 0.00 0.00 90 1017.2
20260506113002 12 136 0.0 0.0 0.00 0.00 0.00 91 1017.1
20260506111559 12 137 0.0 0.0 0.00 0.00 0.00 91 1017.1
20260506110101 13 137 0.0 0.0 0.00 0.00 0.00 90 1017.1
20260506104557 13 137 0.0 0.0 0.00 0.00 0.00 91 1017.2
20260506103056 13 137 0.0 0.0 0.00 0.00 0.00 90 1017.2
20260506101554 13 137 0.0 0.0 0.00 0.00 0.00 90 1017.1
20260506100054 13 137 0.0 0.0 0.00 0.00 0.00 89 1017.0
20260506094550 13 233 0.0 0.0 0.00 0.08 0.00 89 1017.1
20260506093052 13 233 0.0 0.0 0.00 0.08 0.00 88 1017.2
20260506091547 14 223 0.0 0.0 0.00 0.08 0.00 88 1017.2
20260506090046 14 223 0.0 0.0 0.00 0.08 0.00 88 1017.3
20260506084545 14 219 0.0 0.0 0.00 0.08 0.00 88 1017.4
20260506083045 15 213 0.0 0.0 0.00 0.08 0.00 89 1017.5
20260506081548 15 213 0.0 0.0 0.00 0.08 0.00 89 1017.5
20260506073040 15 269 0.0 4.8 0.00 0.08 0.00 88 1017.5
20260506071548 15 269 0.0 4.8 0.00 0.08 0.00 88 1017.5
20260506061535 15 259 0.0 9.7 0.00 0.08 0.08 87 1017.1
20260506044530 16 261 4.8 14.5 0.00 0.08 0.08 84 1016.3
20260506043023 16 244 8.0 14.5 0.00 0.08 0.08 84 1016.2
20260506041524 16 284 3.2 16.1 0.00 0.08 0.08 84 1016.2
20260506040020 16 240 9.7 17.7 0.00 0.08 0.08 83 1015.9
20260506034519 16 286 11.3 19.3 0.00 0.08 0.08 82 1015.6
20260506033018 16 281 8.0 17.7 0.00 0.08 0.08 82 1015.5
20260506031518 16 278 6.4 19.3 0.00 0.08 0.08 81 1015.3
20260506030020 16 289 14.5 24.1 0.00 0.08 0.08 81 1015.1
20260506024521 16 275 12.9 25.7 0.00 0.08 0.08 80 1014.8
20260506023016 16 265 14.5 24.1 0.00 0.08 0.08 80 1014.6
20260506021515 17 252 11.3 25.7 0.00 0.08 0.08 79 1014.4
20260506020014 17 277 11.3 24.1 0.00 0.08 0.08 78 1014.5
20260506014514 17 290 14.5 24.1 0.00 0.08 0.08 77 1014.3
20260506013013 17 315 14.5 29.0 0.00 0.08 0.08 74 1014.1
20260506011512 18 286 16.1 27.4 0.00 0.08 0.08 75 1014.2
20260506010012 17 259 11.3 29.0 0.00 0.08 0.08 75 1014.2
20260506004512 18 269 16.1 30.6 0.00 0.08 0.08 73 1014.1
20260506003011 18 275 22.5 33.8 0.00 0.08 0.08 72 1013.9
20260506001510 18 271 16.1 32.2 0.00 0.08 0.08 74 1014.1
20260506000010 18 258 17.7 30.6 0.00 0.08 0.08 71 1014.1
20260505234518 19 271 17.7 30.6 0.00 0.08 0.08 71 1014.1
20260505233015 19 268 20.9 30.6 0.00 0.08 0.08 69 1014.2
20260505231511 18 267 19.3 37.0 0.00 0.08 0.08 69 1014.2